{"data":{"norad_id":67609,"epoch":"2026-09-18T03:49:19.789248Z","epoch_age_seconds":271395,"freshness":"STALE","line1":"1 67609U 26018W   26261.15925682  .00024522  00000+0  75940-3 0  9992","line2":"2 67609  97.2845 324.6808 0001269 111.8521 248.2857 15.33446678 36836","mean_motion":15.33446678,"eccentricity":0.0001269,"inclination_deg":97.2845,"raan_deg":324.6808,"arg_perigee_deg":111.8521,"mean_anomaly_deg":248.2857,"bstar":0.0007594,"rev_number":3683,"period_min":93.90610189838,"perigee_km":464.66971955467,"apogee_km":466.40664431585,"semimajor_km":6843.6751819353,"source":"CELESTRAK","updated_at":"2026-09-20T09:00:43.607568Z"}}